Tracking 18980 objects as of 22-Feb-2018
HD Live streaming from Space Station
objects crossing your sky now

FENGYUN 1C DEB

Track FENGYUN 1C DEB now!
10-day predictions


NORAD ID: 30708
Int'l Code: 1999-025ARS
Perigee: 857.8 km
Apogee: 869.8 km
Inclination: 99.0 °
Period: 102.1 minutes
Semi major axis: 7234 km
RCS: 0.009 m2 (small)
Launch date: May 10, 1999
Source: People's Republic of China (PRC)
Launch site: Taiyaun Space Center, China (TSC)

Note: This is SATELLITE DEBRIS
aabbcc
Your satellite tracking list
Your tracking list is empty




NASA's NSSDC Master Catalog

Two Line Element Set (TLE):
1 30708U 99025ARS 18052.04094719 -.00000028 +00000-0 +93096-5 0  9996
2 30708 098.9664 079.5805 0008314 358.3374 055.4524 14.10802702566158
Source of the keplerian elements: AFSPC